COSMOS 970 DEB, 64976

Orbit data source: Space-Track

COSMOS 970 DEB, 64976 is space debris in LEO originally from a launch on Wed, 21 Dec 1977 UTC launched from the Tyuratam Missile And Space Complex (TTMTR). Debris objects in space refer to the collection of defunct objects orbiting the Earth. Examples of debris include non-operational satellites, rocket bodies, and fragments generated from explosions, collisions, or faulty payload assembly.

Loading next visibility...
Identifier
64976, 1977-121CM
Orbit
LEO
Country
Flag of CISCIS
Related business
Manufacturer
Unknown
Mission
Spacecraft
Bus & Motor
Unknown
Mass
Unknown
Launch date (UTC)
1977-12-21 (48 years ago)
Launch vehicle
Unknown
Launch site
Tyuratam Missile And Space Complex (TTMTR)
Object type
Payload
Rocket body
Debris
Shape & HBR
Unknown shape, 0.1 m
Radar Cross Section
Small (<0.1 m²)

Expand to show TLE details & history
Last TLE update: 2 days ago

TLE from 2 days ago
0 COSMOS 970 DEB
1 64976U 77121CM  26170.30023488  .00000137  00000-0  41403-3 0  9990
2 64976  65.9393  16.3687 0104285 264.6751 272.0874 13.32885164607308
Epoch: 2026-06-19T07:12Z
TLE epoch observation values (Epoch: 2026-06-19T07:12:20.293Z)
Latitude
3.97443°
Longitude
178.98431°
Altitude
1,135.389 km
Speed
7.287 km/s
True Right ascension
12h 58m 24s
True Declination
3° 57' 07"
Sunlit
Object was in daylight at epoch
Visualization orbit readout
Latitude
Unknown
Longitude
Unknown
Altitude
Unknown
Speed
Unknown
Apparent Right ascension
Unknown
Apparent Declination
Unknown
Sunlit
N/A
Visualization observer readout
Local Sidereal Time
08:32:52
Azimuth
Unknown
Elevation
Unknown
Doppler factor
Unknown
Orbital elements
Apogee altitude
1,212.781 km
Perigee altitude
1,056.091 km
Semi-major axis
7,512.573 km
Eccentricity
0.01043
Inclination
65.9393°
RAAN
16.3687°
Arg. of periapsis
264.6751°
True anomaly
270.89269°
Mean anomaly
272.0874°
Eccentric anomaly
271.49009°
Mean motion
3.33319 °/min
Orbital period
108 mins
BSTAR
0.00041403
Loading maneuver chart data...
Computing Atmospheric mass density...
Loading historical data...
Loading historical data...
Loading historical data...
Loading historical data...
Loading historical data...
Loading historical data...
Loading historical data...

Documentation

Showing up to 5 results
|